Regional Weather Roundup
Issued by NWS

Home | Current Version | Previous Version | Text Only | Print | Product List | Glossary Off
Versions: 1 2 3 4 5 6 7 8 9 10 11 12 13 14 15 16 17 18 19 20 21 22 23 24 25 26 27 28 29 30 31 32 33 34 35 36 37 38 39 40 41 42 43 44 45 46 47 48 49 50

000
ASUS43 KOAX 191710
RWRNE

WEATHER ROUNDUP FOR NEBRASKA
NATIONAL WEATHER SERVICE OMAHA NE
1200 PM CDT SAT APR 19 2014

NOTES: SATELLITE DATA IS BEING USED TO AUGMENT CLOUD COVER ABOVE
       12000 FEET.
       "FAIR" INDICATES FEW OR NO CLOUDS BELOW 12,000 FEET WITH NO
       SIGNIFICANT WEATHER AND/OR OBSTRUCTIONS TO VISIBILITY.

  * THESE STATIONS DO NOT REPORT WEATHER SUCH AS RAIN...SNOW OR FOG.

NEZ001>004-019>022-054>056-191800-
NEBRASKA PANHANDLE

CITY           SKY/WX    TMP DP  RH WIND       PRES   REMARKS
SCOTTSBLUFF    CLOUDY    55  27  34 E8        30.07S
ALLIANCE       PTSUNNY   54  21  27 NE13      30.07R
CHADRON        PTSUNNY   54  33  45 CALM      30.06S
KIMBALL        CLOUDY    50  31  47 NE8       30.07R
SIDNEY         CLOUDY    54  31  41 NE15      30.08R
$$

NEZ057>060-069>072-079>082-191800-
SOUTHWEST NEBRASKA

CITY           SKY/WX    TMP DP  RH WIND       PRES   REMARKS
NORTH PLATTE   CLOUDY    60  42  51 NE17      29.99S
IMPERIAL       PTSUNNY   62  42  47 N21G29    29.99R
LEXINGTON      CLOUDY    63  49  61 E3        29.97S
MCCOOK         PTSUNNY   64  48  56 N12       29.97R
OGALLALA       CLOUDY    60  35  39 NE14      30.04R
$$

NEZ005>010-023>029-035>040-094-191800-
NORTH CENTRAL NEBRASKA

CITY           SKY/WX    TMP DP  RH WIND       PRES   REMARKS
VALENTINE      PTSUNNY   59  27  29 N10       30.05S
AINSWORTH      PTSUNNY   60  32  34 N8        30.04S
BROKEN BOW     CLOUDY    60  47  61 NE10      29.99R
O`NEILL        CLOUDY    63  39  40 N10G18    30.02R
ORD            CLOUDY    64  47  53 NE7       29.98S
THEDFORD       MOSUNNY   62  34  35 N17       30.03S
$$

NEZ041-046>049-061>064-073>077-083>087-191800-
SOUTH CENTRAL NEBRASKA

CITY           SKY/WX    TMP DP  RH WIND       PRES   REMARKS
GRAND ISLAND   CLOUDY    69  48  47 SW16      29.99S
AURORA         PTSUNNY   70  50  47 S14G23    29.99S
HASTINGS       PTSUNNY   70  47  43 SW14G24   29.97R
HEBRON         PTSUNNY   71  48  43 S21G31    30.01F
HOLDREGE       CLOUDY    64  47  54 S7        29.97R
KEARNEY *      CLOUDY    64  50  59 S9        29.98S
YORK           PTSUNNY   70  48  46 S22G29    30.00S
$$

NEZ011>018-030>034-042>045-191800-
NORTHEAST NEBRASKA

CITY           SKY/WX    TMP DP  RH WIND       PRES   REMARKS
NORFOLK        MOSUNNY   68  46  45 SW13      30.00R
ALBION         CLOUDY    64  46  52 W8        30.01R
BLAIR          MOSUNNY   72  44  35 S22G28    30.03F
COLUMBUS *     CLOUDY    70  48  46 S15G22    30.01F
FREMONT        PTSUNNY   70  45  40 S18G25    30.03S
TEKAMAH        PTSUNNY   74  46  36 S28G33    30.02F
$$

NEZ050>053-065>068-078-088>093-191800-
SOUTHEAST NEBRASKA

CITY           SKY/WX    TMP DP  RH WIND       PRES   REMARKS
LINCOLN        PTSUNNY   73  47  39 S24G31    30.02F
OMAHA EPPLEY   PTSUNNY   72  44  36 S22       30.04F
BEATRICE       PTSUNNY   73  46  38 S20G28    30.04F
NEBRASKA CITY  MOSUNNY   73  43  33 S23G31    30.08S
PLATTSMOUTH    MOSUNNY   73  40  30 S23G32    30.06S
$$

NEZ044-045-051>053-067-191800-
OMAHA AREA

CITY           SKY/WX    TMP DP  RH WIND       PRES   REMARKS
OMAHA EPPLEY   PTSUNNY   72  44  36 S22       30.04F
BLAIR          MOSUNNY   72  44  35 S22G28    30.03F
FREMONT        PTSUNNY   70  45  40 S18G25    30.03S
MILLARD        MOSUNNY   73  46  37 SW9G21    30.03F
OFFUTT AFB     MOSUNNY   72  46  38 S18G29    30.05F
PLATTSMOUTH    MOSUNNY   73  40  30 S23G32    30.06S
WAHOO          FAIR      73  43  35 S22       30.02F
$$



USA.gov is the U.S. government's official web portal to all federal, state and local government web resources and services.